SCP
0 0 0 0 0 0 0 0 0 0 0 0 0 0 0 0 0 0 0 0 0 0 0 0 0 0 0 0 0 0 0 0 0 0 0 0 0 0 0 0 0 0 0 0 0 0 0 0 0
0 0 0 0 0 0 0 0 0 0 0 0 0 0 0 0 0 0 0 0 0 0 0 0 0 0 0 0 0 0 0 0 0 0 0 0 0 0 0 0 0 0 0 0 0 0 0 0 0
0 0 0 0 0 0 0 0 0 0 0 0 0 0 0 0 0 0 0 0 0 0 0 0 0 0 0 0 0 0 0 0 0 0 0 0 0 0 0 0 0 0 0 0 0 0 0 0 0
0 0 0 0 0 0 0 0 0 0 0 0 0 0 0 0 0 0 0 0 0 0 0 0 0 0 0 0 0 0 0 0 0 0 0 0 0 0 0 0 0 0 0 0 0 0 0 0 0
0 0 0 0 0 0 0 0 0 0 0 0 0 0 0 0 0 0 0 0 0 0 0 0 0 0 0 0 0 0 0 0 0 0 0 0 0 0 0 0 0 0 0 0 0 0 0 0 0
0 0 0 0 0 0 0 0 0 0 0 0 0 0 0 0 0 0 0 0 0 0 0 0 0 0 0 0 0 0 0 0 0 0 0 0 0 0 0 0 0 0 0 0 0 0 0 0 0
0 0 0 0 0 0 0 0 0 0 0 0 0 0 0 0 0 0 0 0 0 0 0 0 0 0 0 0 0 0 0 0 0 0 0 0 0 0 0 0 0 0 0 0 0 0 0 0 0
0 0 0 0 0 0 0 0 0 0 0 0 0 0 0 0 0 0 0 0 0 0 0 0 0 0 0 0 0 0 0 0 0 0 0 0 0 0 0 0 0 0 0 0 0 0 0 0 0
0 0 0 0 0 0 0 0 0 0 0 0 0 0 0 0 0 0 0 0 0 0 0 0 0 0 0 0 0 0 0 0 0 0 0 0 0 0 0 0 0 0 0 0 0 0 0 0 0
0 0 0 0 0 0 0 0 0 0 0 0 0 0 0 0 0 0 0 0 0 0 0 0 0 0 0 0 0 0 0 0 0 0 0 0 0 0 0 0 0 0 0 0 0 0 0 0 0
0 0 0 0 0 0 0 0 0 0 0 0 0 0 0 0 0 0 0 0 0 0 0 0 0 0 0 0 0 0 0 0 0 0 0 0 0 0 0 0 0 0 0 0 0 0 0 0 0
0 0 0 0 0 0 0 0 0 0 0 0 0 0 0 0 0 0 0 0 0 0 0 0 0 0 0 0 0 0 0 0 0 0 0 0 0 0 0 0 0 0 0 0 0 0 0 0 0
0 0 0 0 0 0 0 0 0 0 0 0 0 0 0 0 0 0 0 0 0 0 0 0 0 0 0 0 0 0 0 0 0 0 0 0 0 0 0 0 0 0 0 0 0 0 0 0 0
0 0 0 0 0 0 0 0 0 0 0 0 0 0 0 0 0 0 0 0 0 0 0 0 0 0 0 0 0 0 0 0 0 0 0 0 0 0 0 0 0 0 0 0 0 0 0 0 0
0 0 0 0 0 0 0 0 0 0 0 0 0 0 0 0 0 0 0 0 0 0 0 0 0 0 0 0 0 0 0 0 0 0 0 0 0 0 0 0 0 0 0 0 0 0 0 0 0
0 0 0 0 0 0 0 0 0 0 0 0 0 0 0 0 0 0 0 0 0 0 0 0 0 0 0 0 0 0 0 0 0 0 0 0 0 0 0 0 0 0 0 0 0 0 0 0 0
0 0 0 0 0 0 0 0 0 0 0 0 0 0 0 0 0 0 0 0 0 0 0 0 0 0 0 0 0 0 0 0 0 0 0 0 0 0 0 0 0 0 0 0 0 0 0 0 0
0 0 0 0 0 0 0 0 0 0 0 0 0 0 0 0 0 0 0 0 0 0 0 0 0 0 0 0 0 0 0 0 0 0 0 0 0 0 0 0 0 0 0 0 0 0 0 0 0
0 0 0 0 0 0 0 0 0 0 0 0 0 0 0 0 0 0 0 0 0 0 0 0 0 0 0 0 0 0 0 0 0 0 0 0 0 0 0 0 0 0 0 0 0 0 0 0 0
0 0 0 0 0 0 0 0 0 0 0 0 0 0 0 0 0 0 0 0 0 0 0 0 0 0 0 0 0 0 0 0 0 0 0 0 0 0 0 0 0 0 0 0 0 0 0 0 0
0 0 0 0 0 0 0 0 0 0 0 0 0 0 0 0 0 0 0 0 0 0 0 0 0 0 0 0 0 0 0 0 0 0 0 0 0 0 0 0 0 0 0 0 0 0 0 0 0
0 0 0 0 0 0 0 0 0 0 0 0 0 0 0 0 0 0 0 0 0 0 0 0 0 0 0 0 0 0 0 0 0 0 0 0 0 0 0 0 0 0 0 0 0 0 0 0 0
0 0 0 0 0 0 0 0 0 0 0 0 0 0 0 0 0 0 0 0 0 0 0 0 0 0 0 0 0 0 0 0 0 0 0 0 0 0 0 0 0 0 0 0 0 0 0 0 0
0 0 0 0 0 0 0 0 0 0 0 0 0 0 0 0 0 0 0 0 0 0 0 0 0 0 0 0 0 0 0 0 0 0 0 0 0 0 0 0 0 0 0 0 0 0 0 0 0
0 0 0 0 0 0 0 0 0 0 0 0 0 0 0 0 0 0 0 0 0 0 0 0 0 0 0 0 0 0 0 0 0 0 0 0 0 0 0 0 0 0 0 0 0 0 0 0 0
0 0 0 0 0 0 0 0 0 0 0 0 0 0 0 0 0 0 0 0 0 0 0 0 0 0 0 0 0 0 0 0 0 0 0 0 0 0 0 0 0 0 0 0 0 0 0 -0 -0
0 0 0 0 0 0 0 0 0 0 0 0 0 0 0 0 0 0 0 0 0 0 0 0 0 0 0 0 0 0 0 0 0 0 0 0 0 0 0 0 0 0 0 0 0 0 0 0 0
0 0 0 0 0 0 0 0 0 0 0 0 0 0 0 0 0 0 0 0 0 0 0 0 0 0 0 0 0 0 0 0 0 0 0 0 0 0 0 0 0 0 0 0 0 0 0 0 0
0 0 0 0 0 0 0 0 0 0 0 0 0 0 0 0 0 0 0 0 0 0 0 0 0 0 0 0 0 0 0 0 0 0 0 0 0 0 0 0 0 0 0 0 0 0 0 0 0
0 0 0 0 0 0 0 0 0 0 0 0 0 0 0 0 0 0 0 0 0 0 0 0 0 0 0 0 0 0 0 0 0 -0 0 0 0 0 0 0 0 0 0 0 0 0 0 0 0
Wind_Speed
8 10 8 3 3 5 9 8 6 1 2 4 6 4 4 5 5 8 4 6 10 11 11 10 11 11 11 11 11 11 10 10 10 10 9 9 8 8 7 7 7 6 6 5 4 3 3 3 3
9 8 6 4 5 7 8 10 7 2 5 5 4 3 4 6 7 9 5 7 9 10 10 10 11 11 11 11 11 10 10 10 10 10 9 9 9 8 7 7 6 6 7 6 5 4 3 3 3
11 9 4 4 6 7 5 2 3 6 7 4 2 2 4 6 7 6 5 7 8 11 10 10 11 11 11 11 10 10 10 10 9 9 9 9 9 8 8 7 7 6 6 6 6 5 4 3 2
6 4 5 7 11 9 7 1 6 7 4 2 4 4 5 5 5 7 7 6 9 10 10 10 11 11 10 10 10 10 10 9 9 9 9 8 8 8 8 8 7 6 5 6 6 5 5 4 3
4 4 6 8 12 10 6 1 5 4 5 4 4 4 5 4 9 9 7 6 8 10 9 10 11 11 10 10 9 9 9 9 8 8 8 7 7 7 7 7 7 7 5 5 5 5 5 4 4
4 4 7 10 12 10 7 2 4 4 4 5 4 4 5 6 8 7 6 6 9 10 9 9 11 11 10 10 9 9 8 8 8 7 7 6 6 7 7 7 7 7 6 5 4 4 4 4 3
5 5 8 10 9 7 6 4 5 4 4 4 4 5 7 7 7 6 6 6 8 9 8 6 6 8 10 10 9 9 8 8 7 7 7 6 6 6 6 6 6 6 6 5 4 4 3 3 3
4 4 8 10 9 6 1 3 2 2 2 3 2 3 6 9 8 6 5 6 7 7 7 6 6 6 5 6 8 8 7 6 6 6 5 5 5 5 5 5 5 5 5 5 4 3 3 3 3
4 5 7 8 6 3 3 3 2 3 2 2 3 4 9 13 9 7 5 5 6 6 5 5 5 5 5 4 6 6 5 4 4 3 2 3 2 2 2 3 4 5 5 5 5 4 3 3 3
5 6 7 4 3 2 2 2 3 2 3 3 4 6 11 10 9 8 7 6 6 6 5 5 5 5 4 3 3 2 2 2 2 1 2 2 2 1 2 2 3 4 5 5 5 5 4 3 1
6 7 6 5 3 3 1 1 2 3 4 5 8 10 10 9 8 7 7 6 6 6 5 5 5 4 3 2 2 1 1 1 1 2 1 1 1 1 1 1 1 2 3 3 4 3 2 2 1
8 7 7 4 2 1 2 2 3 6 3 1 6 11 11 10 9 8 8 7 6 6 5 5 5 4 3 2 2 2 1 1 1 1 1 1 1 1 1 1 2 1 1 2 2 2 2 2 2
12 8 7 4 2 3 4 5 5 6 2 0 4 8 10 10 8 7 6 6 6 6 5 5 5 4 3 2 1 1 1 1 1 1 1 1 1 1 1 1 1 2 2 2 2 2 3 2 2
7 7 7 5 5 5 6 7 6 6 4 4 6 8 8 9 8 7 6 6 6 6 6 5 5 4 4 2 1 1 1 1 1 1 1 1 1 1 1 1 1 2 2 2 2 3 3 2 2
4 5 7 8 8 5 5 8 11 9 6 7 8 8 9 8 8 7 7 6 7 7 6 6 5 4 4 3 2 1 1 1 1 1 1 1 1 1 1 1 1 2 2 3 2 3 3 3 3
5 6 7 7 9 6 5 9 7 8 9 9 8 8 8 8 8 7 7 6 7 7 7 6 5 5 4 3 2 1 1 1 1 1 1 1 1 1 1 1 1 2 2 2 2 2 2 3 3
8 8 9 6 9 7 8 7 4 4 8 9 8 8 8 8 8 7 7 7 7 7 7 6 5 5 4 3 2 2 1 1 1 1 1 0 0 1 0 1 1 1 1 2 3 2 2 3 4
8 8 9 8 7 8 9 8 4 4 6 7 7 8 8 9 9 8 7 7 7 7 7 6 5 5 4 2 1 1 1 1 1 1 1 0 0 0 1 1 1 1 1 2 2 3 2 2 3
6 7 8 4 3 5 8 9 8 6 6 7 7 7 7 8 8 8 7 7 7 7 7 6 5 4 4 2 2 2 1 1 0 1 1 1 1 0 0 1 1 1 1 2 2 2 3 3 3
9 8 6 1 2 3 5 9 8 8 9 8 8 7 7 7 8 8 8 7 7 7 7 7 6 5 4 3 2 2 2 1 1 1 1 1 1 1 1 1 1 1 1 2 2 2 2 2 2
10 8 6 3 2 4 4 8 10 10 9 8 8 6 7 8 9 9 9 8 7 7 7 7 6 5 4 4 2 1 1 0 1 1 1 2 2 2 1 2 1 2 1 2 2 2 2 3 3
8 6 5 3 2 4 5 6 6 7 9 10 8 7 7 6 7 9 9 9 8 7 7 7 7 6 4 4 3 3 2 2 2 2 2 2 2 2 2 2 2 2 2 2 3 2 2 2 3
2 1 2 3 4 4 5 5 6 6 7 8 8 7 6 6 7 8 9 9 8 7 6 6 6 6 5 4 4 3 2 2 1 1 2 2 2 3 3 2 2 2 2 3 3 3 3 2 3
2 1 1 2 2 6 9 7 6 5 8 7 7 7 6 6 5 6 7 8 7 7 6 6 6 5 5 5 4 4 3 3 2 2 2 2 2 2 3 3 2 2 2 3 3 3 4 3 4
4 4 2 2 4 7 6 7 6 4 4 6 7 6 5 6 5 6 7 8 8 8 7 6 6 5 5 5 4 4 4 4 3 3 2 2 2 2 3 3 2 3 3 3 3 4 4 4 5
6 5 5 5 5 4 5 7 4 3 3 4 4 5 5 5 4 5 6 7 8 8 7 6 6 5 5 5 4 4 3 3 3 3 3 3 3 3 3 3 3 4 4 4 4 4 4 4 4
5 5 2 2 2 2 5 3 2 3 3 4 4 4 4 4 4 4 5 6 7 7 7 7 6 5 5 5 4 4 4 3 3 3 3 3 2 2 2 3 3 4 4 4 4 4 5 4 4
3 2 2 3 3 4 5 5 4 5 4 3 3 4 4 3 3 4 4 4 5 6 5 5 4 4 4 4 4 3 3 3 3 2 3 2 2 2 2 3 3 4 4 4 4 4 4 5 5
3 2 3 3 3 3 3 2 1 4 5 4 3 3 4 4 3 3 3 4 4 4 4 4 4 3 3 3 3 3 2 2 2 2 3 2 2 2 3 3 3 4 4 4 4 5 5 5 6
3 4 4 3 4 4 2 2 2 4 4 4 4 4 4 4 3 3 3 3 3 4 4 4 3 3 3 2 2 2 2 2 2 2 2 2 2 2 3 3 4 4 4 4 5 6 5 6 6
Wind_Direction
262 244 231 225 226 231 238 241 247 156 48 32 21 26 36 35 35 111 160 109 108 111 111 100 92 90 86 82 78 75 72 69 66 63 62 62 62 62 63 62 60 58 55 53 54 62 70 71 77
268 235 224 229 234 232 235 226 238 134 90 61 34 22 59 78 78 104 117 114 117 111 109 103 96 91 87 83 79 77 73 70 66 62 60 59 58 56 56 57 57 56 53 49 48 51 56 60 66
265 242 223 225 230 233 243 184 135 94 92 104 100 25 43 84 102 111 122 129 112 104 104 104 100 95 90 85 81 77 74 71 66 62 59 58 57 55 53 50 50 54 54 49 43 44 50 53 47
235 218 242 240 241 240 254 83 93 104 102 138 137 105 73 52 91 112 130 125 111 106 107 110 103 97 92 87 82 77 73 70 66 62 59 56 55 54 50 50 47 47 51 47 41 38 42 42 30
239 226 226 236 244 253 264 93 109 134 149 175 174 124 96 72 95 115 132 122 112 106 107 112 107 103 96 91 86 80 74 70 66 62 59 57 55 53 50 46 42 39 43 46 41 36 34 33 30
222 233 229 230 236 236 239 189 146 185 181 166 169 137 114 125 118 129 130 120 108 106 106 112 112 107 100 93 88 82 76 70 65 62 58 54 53 52 50 47 41 37 35 37 36 28 22 20 20
236 241 245 248 245 232 216 166 176 190 195 171 161 128 126 137 131 136 130 115 107 110 113 113 114 109 104 97 91 86 79 74 69 64 58 53 53 50 49 45 38 33 28 25 19 13 9 7 358
255 266 247 246 250 250 200 128 150 208 203 140 143 144 145 148 139 136 124 113 110 113 119 125 122 115 108 103 100 96 88 81 76 67 58 51 50 48 43 38 31 24 16 10 3 350 342 334 329
254 250 245 241 245 238 126 141 134 33 49 87 66 44 121 134 140 137 130 126 126 129 129 128 120 111 108 112 113 113 109 105 97 81 57 41 43 45 42 47 26 13 6 359 352 340 324 312 299
217 237 241 271 313 342 101 148 143 154 176 163 112 95 118 136 148 155 158 156 148 144 136 120 113 112 110 111 121 136 127 125 105 76 55 47 34 22 33 40 18 359 351 346 339 332 321 310 293
210 236 252 274 353 0 353 261 183 199 212 192 163 148 146 154 164 170 169 162 155 147 135 121 117 115 112 109 119 103 99 98 78 63 55 47 32 18 20 7 351 340 346 335 327 321 314 299 296
232 237 255 273 12 332 276 264 246 228 231 188 156 154 157 169 178 180 174 164 150 138 128 122 121 122 121 118 115 125 119 104 90 65 53 49 34 17 2 8 346 349 338 328 322 314 317 304 296
233 244 246 251 235 246 264 257 255 249 227 146 137 150 166 176 181 180 167 154 146 139 135 131 127 128 127 119 132 117 114 109 111 89 58 64 56 14 4 357 355 349 339 336 327 325 321 310 299
230 235 244 235 229 229 236 246 241 234 197 190 175 170 176 181 181 175 167 164 152 145 143 137 136 135 131 133 142 127 125 132 120 101 74 65 68 25 14 1 353 345 331 324 325 328 319 306 296
247 250 250 231 219 216 226 245 229 223 199 199 192 184 182 185 182 180 173 166 153 149 147 143 142 137 139 144 151 134 141 136 127 128 103 69 67 24 9 360 347 331 324 326 326 326 323 319 313
226 229 237 219 206 198 204 246 224 200 196 204 200 191 185 185 185 180 171 162 152 151 149 148 150 142 142 138 138 138 133 116 127 137 123 88 41 21 356 347 331 328 331 332 327 332 332 323 312
213 222 224 214 197 187 203 245 224 178 188 201 200 194 188 184 187 181 171 161 155 151 147 147 147 147 145 143 153 152 143 145 147 114 104 88 347 342 345 313 301 325 332 328 322 333 328 317 311
207 219 224 210 191 192 210 237 232 198 201 207 204 197 189 188 189 177 167 157 150 146 144 146 143 146 141 138 138 123 131 149 134 127 149 171 269 332 334 310 313 327 330 322 322 321 321 308 302
249 242 242 231 178 195 224 242 239 216 213 219 212 202 193 187 177 167 160 153 149 146 147 150 150 153 145 145 151 150 164 174 157 187 189 209 225 234 283 305 308 309 297 294 303 308 310 310 316
253 256 259 255 169 206 245 253 246 225 216 211 211 204 193 184 173 164 157 153 155 154 153 155 159 159 154 160 164 165 169 185 187 207 219 226 232 241 256 259 272 282 287 300 302 302 303 308 331
240 239 243 239 257 240 269 268 235 227 218 212 211 206 194 186 176 166 162 161 159 159 160 163 161 159 158 159 148 145 129 170 241 227 218 225 225 229 245 258 267 282 279 277 285 289 295 297 303
237 241 243 233 231 243 208 266 240 210 207 206 205 203 198 190 174 168 167 166 165 164 160 160 160 159 161 155 156 167 184 206 223 219 226 236 230 235 237 246 253 265 271 275 277 285 276 272 283
233 256 242 239 241 270 232 246 259 201 210 200 195 196 193 185 175 172 170 166 162 156 157 160 158 160 161 162 169 179 195 216 221 221 234 242 237 231 236 241 246 260 265 269 275 278 274 262 261
168 136 216 253 243 254 224 220 257 210 209 197 187 185 181 175 171 169 163 156 155 152 155 161 161 165 167 170 178 183 193 207 216 231 234 244 246 238 237 240 239 254 262 264 265 264 265 264 264
185 149 154 192 216 240 201 208 240 216 189 181 179 178 172 166 167 167 164 162 159 159 162 167 165 171 174 177 186 191 197 200 208 220 227 242 254 254 242 247 248 257 263 263 262 262 261 260 261
206 194 184 194 209 227 199 217 231 162 131 135 138 141 141 142 155 164 164 161 160 162 166 172 174 177 178 182 193 197 199 201 207 215 225 237 241 246 246 248 251 254 260 268 264 264 259 262 260
190 219 257 283 275 259 229 218 168 123 109 111 115 113 124 131 139 151 154 157 158 164 173 177 178 179 181 186 191 198 202 207 213 217 224 238 246 255 253 251 254 259 260 261 262 260 264 266 263
242 210 170 189 205 234 227 214 201 172 166 142 135 133 131 121 128 137 147 153 157 163 166 168 178 182 184 187 194 206 209 209 211 213 225 240 247 252 256 266 260 264 267 265 264 267 268 266 263
198 205 218 216 238 223 232 235 72 151 154 148 129 123 127 123 123 132 135 138 141 144 155 169 179 180 184 188 194 202 202 193 190 211 226 231 246 251 256 261 264 265 266 267 267 270 273 273 273
233 204 184 197 237 237 252 255 31 89 107 106 105 99 102 103 97 101 109 120 130 143 159 167 176 184 190 187 197 198 189 183 203 231 230 231 251 257 257 264 267 267 269 267 267 274 278 274 273